Flag for U.S.A. Weather past 2 weeks in Jackson, Mississippi, U.S.A.

Now
82 °F

Sunny.


Feels Like: 81 °F
Forecast: 62 / 84 °F
Wind: No wind

Location: Hawkins Field

Current Time: Jul 30, 2014 at 2:27:06 PM

Latest Report: Jul 30, 2014 at 1:53 PM


Visibility: 10 mi

Pressure: 30.05 "Hg

Humidity: 37%

Dew point: 53 °F

Location of JacksonLocation

Historic Weather in Jackson — Graph

°F

Jackson temperature yesterday

Maximum temperature yesterday: 87 °F (at 2:53 PM)
Minimum temperature yesterday: 67 °F (at 5:53 AM)
Average temperature yesterday: 78 °F

Past Weeks' High & Low Weather Summary

 TemperatureHumidityPressure
High93 °F (Jul 26, 1:53 PM)90% (Jul 18, 11:53 PM)30.11 "Hg (Jul 18, 11:53 PM)
Low61 °F (Jul 30, 5:53 AM)39% (Jul 30, 12:53 PM)29.88 "Hg (Jul 15, 4:53 PM)
Average78 °F70%30.00 "Hg
* Reported Jul 15 12:53 PM — Jul 30 12:53 PM, Jackson, Weather by CustomWeather, © 2014

Note: Actual official high and low records may vary slightly from our data, if they occured in-between our weather recording intervals... More about our weather records

Advertising

Jackson weather history for previous 24 hours

 ConditionsComfort  
Time TempWeatherWind HumidityBarometerVisibility
12:53 PM
Jul 30
81 °FSunny.6 mph39%30.07 "Hg10 mi
11:53 AM80 °FSunny.3 mph41%30.09 "Hg10 mi
10:53 AM78 °FSunny.3 mph43%30.10 "Hg10 mi
9:53 AM76 °FSunny.5 mph48%30.09 "Hg10 mi
8:53 AM73 °FSunny.5 mph57%30.11 "Hg10 mi
7:53 AM69 °FSunny.3 mph70%30.10 "Hg10 mi
6:53 AM63 °FClear.No wind84%30.08 "Hg10 mi
5:53 AM61 °FClear.No wind87%30.07 "Hg10 mi
4:53 AM63 °FClear.No wind84%30.06 "Hg10 mi
3:53 AM65 °FClear.No wind81%30.06 "Hg10 mi
2:53 AM66 °FClear.No wind75%30.05 "Hg10 mi
1:53 AM69 °FClear.No wind68%30.06 "Hg10 mi
12:53 AM70 °FClear.3 mph66%30.06 "Hg10 mi
11:53 PM
Jul 29
71 °FClear.No wind63%30.06 "Hg10 mi
10:53 PM73 °FClear.7 mph59%30.06 "Hg10 mi
9:53 PM74 °FClear.3 mph57%30.05 "Hg10 mi
8:53 PM75 °FSunny.5 mph55%30.04 "Hg10 mi
7:53 PM79 °FSunny.No wind47%30.04 "Hg10 mi
6:53 PM83 °FSunny.8 mph46%30.03 "Hg10 mi
5:53 PM85 °FSunny.7 mph46%30.02 "Hg10 mi
4:53 PM85 °FSunny.9 mph45%30.03 "Hg10 mi
3:53 PM86 °FSunny.10 mph46%30.02 "Hg10 mi
2:53 PM87 °FPartly sunny.8 mph46%30.03 "Hg10 mi
Weather by CustomWeather, © 2014

See weather overviewHow to use our weather pages